www.pogodaiklimat.ru
Время
(UTC), дата
04 8.12
05 8.12
06 8.12
07 8.12
08 8.12
09 8.12
10 8.12
11 8.12
12 8.12
13 8.12
14 8.12
15 8.12
16 8.12
17 8.12
18 8.12
19 8.12
20 8.12
21 8.12
22 8.12
23 8.12
00 9.12
01 9.12
02 9.12
03 9.12
04 9.12
05 9.12
06 9.12
07 9.12
08 9.12
09 9.12
10 9.12
11 9.12
12 9.12
13 9.12
14 9.12
15 9.12
16 9.12
17 9.12
18 9.12
19 9.12
20 9.12
21 9.12
22 9.12
23 9.12
00 10.12
01 10.12
02 10.12
03 10.12
04 10.12
05 10.12
06 10.12
07 10.12
08 10.12
09 10.12
10 10.12
11 10.12
12 10.12
13 10.12
14 10.12
15 10.12
16 10.12
17 10.12
18 10.12
19 10.12
20 10.12
21 10.12
22 10.12
23 10.12
00 11.12
01 11.12
02 11.12
03 11.12
04 11.12
05 11.12
06 11.12
07 11.12
08 11.12
09 11.12
10 11.12
11 11.12
12 11.12
13 11.12
14 11.12
15 11.12
16 11.12
17 11.12
18 11.12
19 11.12
20 11.12
21 11.12
22 11.12
23 11.12
00 12.12
01 12.12
02 12.12
03 12.12
04 12.12
05 12.12
06 12.12
07 12.12
08 12.12
09 12.12
10 12.12
11 12.12
12 12.12
13 12.12
14 12.12
15 12.12
16 12.12
17 12.12
18 12.12
19 12.12
20 12.12
21 12.12
22 12.12
23 12.12
00 13.12
01 13.12
02 13.12
03 13.12
04 13.12
05 13.12
06 13.12
07 13.12
08 13.12
09 13.12
10 13.12
11 13.12
12 13.12
13 13.12
14 13.12
15 13.12
16 13.12
17 13.12
18 13.12
19 13.12
20 13.12
21 13.12
22 13.12
23 13.12
00 14.12
01 14.12
02 14.12
03 14.12
04 14.12
05 14.12
06 14.12
07 14.12
08 14.12
09 14.12
10 14.12
11 14.12
12 14.12
13 14.12
14 14.12
15 14.12
16 14.12
17 14.12
18 14.12
19 14.12
20 14.12
21 14.12
22 14.12
23 14.12
00 15.12
01 15.12
02 15.12
Ветер
(напр.,м/с)
Видим. Явления Облачность Т
(С)
Тd
(С)
f
(%)
Тe
(С)
Тes
(С)
Комфортность P
(гПа)
Po
(гПа)
Тmin
(С)
Tmax
(С)
R
(мм)
R24
(мм)
S
(см)
300 м переохл. туман ?/? -0.8 -1.1 98 1019.4 1002.5
С 1 800 м переохл. туман 9/9 30 м
[Sc]
-0.5 -0.8 98 -3 -3 по сезону 1019.3 1002.4
С 2 2500 м в посл. час туман [диам. изморози 1 мм] 8/8 30 м
[Sc]
-0.6 -0.9 98 -5 -5 по сезону 1019.4 1002.5 -1.7 2.6
2500 м дымка 9/9 60 м
[Sc]
-0.3 -0.4 99 1019.8 1002.9
1400 м дымка 9/9 30 м
[Sc]
+0.2 +0.1 99 1019.5 1002.6
нст 1 200 м туман ?/? +0.3 +0.2 99 -2 -2 по сезону 1019.2 1002.3
СВ 2 200 м туман 9/9 30 м
[St]
+0.8 +0.7 99 -3 -3 по сезону 1018.0 1001.2
2500 м в посл. час туман 9/9 30 м
[St]
+1.8 +1.6 99 1016.9 1000.2
СВ 3 5000 м дымка {туман} 5/1 120 м
[St Ci fib]
+3.1 +2.8 98 -1 0 по сезону 1016.0 999.4
СВ 3 10 км 8/0
[Ac lent Ci fib]
+5.3 +2.6 83 +2 +3 тепло 1014.9 998.4
СВ 2 12 км 8/1 450 м
[Cu hum Ac lent Ci fib]
+4.9 +2.4 84 +2 +2 тепло 1014.1 997.6
ЮВ 3 12 км 8/1 450 м
[Sc Ci fib]
+3.8 +1.8 87 0 0 по сезону 1013.9 997.3
Ю 2 10 км 6/1 420 м
[St Ci fib]
+1.0 0.0 93 -3 -3 по сезону 1013.7 997.0
7000 м дымка 9/9 180 м
[St]
+1.6 +0.7 94 1013.5 996.8
СВ 2 6000 м дымка 10/10 120 м
[St]
+1.8 +1.1 95 -2 -2 по сезону 1013.1 996.4 +5.3
СВ 3 4000 м дымка 10/10 90 м
[St]
+1.8 +1.2 96 -3 -3 по сезону 1012.8 996.1
СВ 4 2000 м дымка 10/10 30 м
[St]
+2.0 +1.6 97 -3 -3 тепло 1012.4 995.8
С 4 500 м туман 10/10 30 м
[St]
+2.0 +1.7 98 -3 -3 по сезону 1011.9 995.3
СВ 4 1200 м дымка {туман} 10/10 30 м
[St]
+2.2 +2.0 99 -3 -3 по сезону 1011.8 995.2
СВ 4 1600 м дымка 10/10 30 м
[St]
+2.4 +2.2 99 -3 -3 тепло 1011.0 994.4
СВ 2 500 м туман 10/10 30 м
[St]
+2.5 +2.4 99 -1 -1 по сезону 1010.9 994.3
СВ 3 1600 м в посл. час туман 10/10 60 м
[St]
+2.5 +2.4 99 -2 -2 тепло 1010.6 994.0
СВ 3 800 м туман 10/10 30 м
[St]
+2.5 +2.4 99 -2 -2 тепло 1010.3 993.7
СВ 3 400 м туман ?/? +2.5 +2.4 99 -2 -2 по сезону 1009.8 993.2
СВ 4 300 м туман ?/? +2.5 +2.4 99 -3 -3 по сезону 1009.9 993.3
СВ 3 200 м туман ?/? +2.6 +2.4 99 -2 -2 тепло 1009.8 993.2
СВ 2 200 м слаб. морось {туман} 10/10 30 м
[Frnb]
+2.9 +2.8 99 -0 -0 по сезону 1010.0 993.5 +1.6 0.0
СВ 3 300 м туман ?/? +3.0 +2.8 99 -1 -1 тепло 1010.6 994.0
СВ 2 400 м туман ?/? +3.3 +3.2 99 0 0 тепло 1010.5 994.0
СВ 2 1700 м дымка {туман} 9/9 60 м
[St]
+3.5 +3.4 99 0 0 по сезону 1010.6 994.1
СВ 3 2200 м дымка 10/10 60 м
[St]
+3.5 +3.4 99 -1 -1 тепло 1010.4 993.9
СВ 2 2200 м дымка 10/10 90 м
[St]
+3.5 +3.4 99 0 0 тепло 1010.1 993.6
СВ 3 3400 м дымка {туман} 10/10 90 м
[St]
+3.8 +3.6 99 -0 -0 по сезону 1009.7 993.2 0.0
2700 м слаб. морось 10/10 120 м
[Frnb]
+3.7 +3.4 98 1009.9 993.4
С 2 2800 м слаб. морось 10/10 90 м
[Frnb]
+3.8 +3.5 98 +1 +1 тепло 1009.6 993.1
нст 1 2500 м в посл. час морось 10/5 90 м
[St Ac As]
+3.7 +3.3 97 +2 +2 по сезону 1009.0 992.5
В 1 3500 м дымка 10/5 90 м
[St Ac As]
+3.3 +2.9 97 +2 +2 тепло 1009.0 992.5
2200 м дымка 10/9 60 м
[St Ac As]
+3.2 +2.9 98 1009.2 992.7
нст 1 3000 м дымка 10/10 90 м
[St]
+3.4 +3.1 98 +2 +2 тепло 1009.6 993.1 +3.9 0.3
С 2 3200 м дымка 10/10 90 м
[St]
+3.6 +3.3 98 0 0 тепло 1009.9 993.4
С 2 2800 м дымка 10/10 60 м
[St]
+3.7 +3.4 98 +1 +1 тепло 1009.9 993.4
С 3 3000 м дымка 10/10 60 м
[St]
+3.7 +3.4 98 -0 -0 по сезону 1010.4 993.9
СВ 2 700 м туман 10/9 60 м
[St]
+3.7 +3.4 98 +1 +1 тепло 1010.9 994.4
СВ 2 800 м туман 10/9 30 м
[St]
+3.4 +3.1 98 0 0 тепло 1011.1 994.6
нст 1 400 м туман ?/? +3.3 +3.0 98 +2 +2 тепло 1011.3 994.8
СЗ 1 500 м туман ?/? +3.4 +3.2 99 +2 +2 тепло 1012.0 995.4
400 м туман ?/? +3.3 +3.2 99 1012.9 996.3
нст 1 200 м туман ?/? +2.9 +2.8 99 +1 +1 тепло 1013.5 996.9
нст 1 900 м туман 6/3 30 м
[St Ac lent]
+1.1 +1.0 99 -1 -1 тепло 1014.6 997.9
СЗ 7 30 км в посл. час туман 5/3 1260 м
[Sc Ci fib]
+4.9 +2.6 85 -1 -1 тепло 1015.1 998.6
СЗ 6 30 км {туман} 8/8 1170 м
[Sc Ac lent]
+5.2 +2.2 81 0 0 по сезону 1016.4 999.9 +0.5 0.3
СЗ 7 30 км 8/6 930 м
[Sc Ac lent Ci fib]
+5.1 +1.8 79 -0 -0 тепло 1018.0 1001.4
СЗ 8 40 км 5/4 500 м
[Cu Sc Ac lent Ci fib]
+5.2 +0.6 72 -0 -0 тепло 1019.2 1002.6
СЗ 11 40 км 4/1 500 м
[Cu hum Ac lent Ci fib]
+5.8 +0.6 69 -0 -0 по сезону 1020.2 1003.6
СЗ 10 40 км 4/3 500 м
[Cu Sc Ac lent Ci fib]
+6.5 0.0 63 +1 +1 тепло 1020.9 1004.4
СЗ 11 40 км 4/4 1000 м
[Cu Sc Ac lent]
+6.9 -1.0 57 +1 +1 тепло 1021.6 1005.1
СЗ 10 40 км 8/8 1200 м
[Cu Sc Ac lent Ci fib]
+6.4 -2.2 54 +1 +1 по сезону 1022.4 1005.8
С 10 40 км 5/5 1350 м
[Cu hum Ac lent Ci fib]
+6.8 -2.9 50 +2 +2 тепло 1022.9 1006.4
СЗ 8 40 км 4/4 1440 м
[Cu hum Ac lent Ci fib]
+6.3 -3.6 49 +2 +2 тепло 1023.4 1006.8
СЗ 6 50 км 3/3 1410 м
[Cu hum Ac lent]
+5.1 -4.2 51 +1 +1 по сезону 1024.4 1007.7
СЗ 6 50 км 1/1 1380 м
[Cu hum]
+4.6 -4.4 52 0 0 тепло 1024.8 1008.1
СЗ 6 50 км 1/1 1500 м
[Sc]
+4.2 -3.6 57 -1 -1 тепло 1025.3 1008.6
СЗ 6 40 км ясно +4.0 -3.7 57 -1 -1 по сезону 1025.6 1008.9 +6.9
СЗ 6 40 км ясно +3.2 -3.6 61 -2 -2 тепло 1026.0 1009.2
СЗ 5 40 км 1/0
[Ci fib]
+2.9 -3.2 64 -2 -2 тепло 1026.0 1009.2
СЗ 2 40 км ясно +1.9 -3.4 68 -1 -1 по сезону 1026.1 1009.2
З 2 40 км ясно +1.5 -3.4 70 -2 -2 тепло 1025.8 1008.9
Ю 2 40 км ясно -2.3 -5.0 82 -6 -6 тепло 1026.0 1008.9
З 2 40 км ясно +0.2 -4.4 71 -3 -3 по сезону 1025.4 1008.4
СЗ 2 40 км ясно +0.3 -4.3 71 -3 -3 по сезону 1025.3 1008.3
СЗ 2 40 км ясно -0.3 -4.4 74 -4 -4 тепло 1024.7 1007.7
СЗ 4 40 км ясно +0.8 -5.2 64 -4 -4 по сезону 1024.0 1007.1
40 км ясно -2.8 -5.9 79 1023.7 1006.6
СЗ 2 40 км ясно -3.2 -6.0 81 -7 -7 по сезону 1023.3 1006.1
Ю 2 30 км ясно -4.0 -5.5 89 -8 -8 прохладно 1023.1 1005.9 -5.2
30 км ясно -3.6 -5.1 89 1022.8 1005.6
30 км ясно -1.7 -3.4 88 1022.4 1005.4
30 км ясно +1.3 -5.4 61 1022.0 1005.1
35 км ясно +1.5 -5.0 62 1021.2 1004.4
35 км 1/0
[Ci fib]
+1.9 -4.6 62 1019.9 1003.1
В 3 30 км 1/0
[Ci fib]
+2.3 -3.8 64 -1 0 по сезону 1019.0 1002.3
В 3 25 км 1/0
[Ci fib]
+2.0 -3.3 68 -2 -1 по сезону 1018.2 1001.4
В 3 25 км 1/1 600 м
[Cu hum Ci fib]
+1.7 -3.2 70 -2 -2 тепло 1017.2 1000.5
В 3 20 км 1/0
[Ci fib]
-0.4 -3.1 82 -5 -5 прохладно 1017.1 1000.2
В 3 20 км 1/0
[Ci fib]
-2.3 -4.3 86 -7 -7 по сезону 1016.5 999.5
В 2 20 км 1/0
[Ci fib]
-2.8 -4.4 89 -7 -7 по сезону 1015.9 998.9
СВ 2 30 км 1/0
[Ci fib]
-3.0 -4.4 90 -7 -7 прохладно 1015.5 998.5 +2.5
В 2 30 км ясно -2.7 -4.4 88 -7 -7 по сезону 1015.1 998.1
В 3 30 км ясно -2.2 -3.9 88 -7 -7 по сезону 1014.6 997.7
В 4 30 км 3/0
[Ci fib]
-1.6 -3.6 86 -7 -7 прохладно 1013.9 997.0
СВ 3 30 км 5/5 1320 м
[Sc Ac lent]
-2.8 -4.2 90 -8 -8 по сезону 1013.8 996.8
СВ 3 25 км 6/6 1110 м
[Sc Ci fib]
-3.4 -4.8 90 -9 -9 по сезону 1013.3 996.3
С 2 25 км 8/8 1050 м
[Sc Ci fib]
-3.0 -4.2 91 -7 -7 прохладно 1013.0 996.0
С 3 20 км 8/8 800 м
[Sc Ci fib]
-2.5 -3.8 91 -8 -8 по сезону 1012.5 995.6
СВ 3 25 км 8/8 720 м
[Sc Ci fib]
-2.8 -4.2 90 -8 -8 по сезону 1011.7 994.8
С 4 20 км 9/9 630 м
[Sc]
-0.9 -2.3 90 -7 -7 прохладно 1011.1 994.3
С 2 20 км 10/10 270 м
[Sc]
-0.7 -2.0 91 -5 -5 по сезону 1010.8 994.0
С 2 12 км 10/10 180 м
[St]
-0.3 -1.3 93 -4 -4 тепло 1010.8 994.0
СВ 2 10 км 10/10 150 м
[St]
-0.1 -0.9 94 -4 -4 по сезону 1010.6 993.9 -4.1
С 3 7000 м дымка 10/10 120 м
[Sc]
+0.1 -0.7 94 -5 -5 по сезону 1010.5 993.8
СВ 2 3500 м дымка 10/10 120 м
[St]
+0.2 -0.5 95 -4 -4 тепло 1010.7 994.0
СВ 2 3000 м дымка 10/10 120 м
[St]
+0.5 -0.2 95 -3 -3 по сезону 1010.8 994.1
СВ 2 3700 м дымка 10/10 90 м
[St]
+0.7 0.0 95 -3 -3 по сезону 1010.4 993.7
СВ 2 2800 м дымка 10/10 90 м
[St]
+0.8 +0.1 95 -3 -3 тепло 1009.8 993.1
СВ 3 1200 м слаб. морось 10/10 60 м
[St]
+0.7 +0.1 96 -4 -4 прохладно 1009.0 992.3 0.0
СВ 3 1500 м слаб. морось 10/10 60 м
[St]
+0.7 +0.3 97 -4 -4 по сезону 1008.4 991.7
СВ 3 2000 м слаб. дождь {морось} 10/9 90 м
[Frnb]
+0.6 +0.2 97 -4 -4 по сезону 1008.1 991.4
С 3 1600 м слаб. снег {дождь, морось} 10/9 60 м
[Frnb]
+0.3 -0.1 97 -5 -5 прохладно 1007.5 990.8
С 3 3500 м слаб. снег 10/10 120 м
[Sc]
+0.3 0.0 98 -5 -5 по сезону 1007.0 990.3
С 2 4500 м слаб. дождь со снегом 10/9 180 м
[Frnb]
+0.6 +0.3 98 -3 -3 тепло 1006.4 989.8
С 1 3800 м слаб. дождь со снегом 10/10 180 м
[Frnb]
+0.7 +0.3 97 -1 -1 по сезону 1005.9 989.3 +0.9 1 <0.5
штиль 0 2600 м слаб. дождь со снегом 10/10 120 м
[Frnb]
+0.4 0.0 97 -1 -1 тепло 1005.5 988.9
СВ 2 3000 м слаб. дождь со снегом 10/10 120 м
[Frnb]
+0.4 +0.1 98 -3 -3 тепло 1004.6 988.0
С 2 2300 м слаб. снег {дождь} 10/10 90 м
[Frnb]
+0.2 -0.1 98 -4 -4 по сезону 1003.9 987.3
С 1 2600 м слаб. снег 10/10 60 м
[Frnb]
+0.2 -0.1 98 -2 -2 по сезону 1003.0 986.4
СВ 2 1400 м дымка {снег} 10/10 90 м
[St]
+0.1 -0.2 98 -4 -4 тепло 1002.0 985.4
С 1 400 м туман {снег, дождь} 10/10 60 м
[St]
+0.1 -0.2 98 -2 -2 по сезону 1001.2 984.6 2
СВ 1 300 м туман 10/10 60 м
[St]
+0.2 -0.1 98 -2 -2 тепло 1000.2 983.7
400 м слаб. снег {туман} 10/10 60 м
[Frnb]
+0.2 -0.1 98 999.1 982.6
ЮВ 2 2200 м слаб. снег {туман} 10/10 60 м
[Frnb]
+0.1 0.0 99 -4 -4 по сезону 997.8 981.3
ЮВ 3 5000 м слаб. снег 10/10 60 м
[Frnb]
+0.2 +0.1 99 -5 -5 по сезону 996.8 980.3
ЮВ 4 6000 м дымка {снег} 10/10 90 м
[St]
+0.2 -0.1 98 -5 -5 тепло 996.0 979.5
ЮВ 4 6000 м дымка {снег, туман} 10/10 90 м
[St]
+0.2 -0.1 98 -5 -5 по сезону 995.2 978.7 +0.1 2 3.3 <0.5
ЮВ 4 6000 м дымка 10/10 90 м
[St]
+0.2 -0.2 97 -5 -5 по сезону 994.4 977.9
Ю 6 8000 м дымка 10/10 150 м
[St]
+0.5 -0.4 94 -6 -6 тепло 993.8 977.4
Ю 8 8000 м дымка 10/10 150 м
[St]
+0.7 -0.6 91 -7 -7 прохладно 992.7 976.3
ЮВ 7 6000 м дымка 10/10 150 м
[St]
+0.7 -0.4 92 -6 -6 по сезону 991.7 975.3
ЮВ 8 7000 м дымка 10/10 240 м
[St]
+1.2 -0.4 89 -6 -6 по сезону 990.5 974.2
ЮВ 7 8000 м дымка 10/10 270 м
[St]
+1.8 0.0 88 -5 -5 прохладно 989.7 973.4
Ю 8 10 км 10/10 240 м
[St]
+2.4 0.0 84 -4 -4 по сезону 989.0 972.8
Ю 6 12 км 9/9 360 м
[Sc]
+2.8 +0.4 84 -3 -3 тепло 989.6 973.4
Ю 5 10 км 9/5 300 м
[Sc Ac As Ci fib]
+2.9 +0.5 84 -2 -2 по сезону 990.3 974.1
Ю 2 12 км 9/9 330 м
[Sc Ac As Ci fib]
+2.6 +0.5 86 -1 -1 по сезону 991.3 975.0
Ю 3 12 км слаб. дождь 10/8 330 м
[Sc Ac As]
+2.8 +0.8 87 -1 -1 тепло 992.5 976.2
В 1 15 км в посл. час дождь 10/5 300 м
[Sc Ac As]
+2.4 +1.1 91 +1 +1 по сезону 993.2 976.9 +3.2 0.2
СВ 2 15 км 9/8 300 м
[Sc Ac As]
+1.4 +0.7 95 -2 -2 по сезону 993.8 977.4
С 2 12 км 9/9 300 м
[Sc]
+2.0 +1.1 94 -1 -1 тепло 994.8 978.4
СВ 2 12 км 9/9 300 м
[Sc]
+2.3 +1.4 94 -1 -1 по сезону 995.3 979.0
С 1 12 км 9/4 300 м
[Sc Ac trans]
+2.1 +1.2 94 0 0 тепло 996.0 979.6
С 2 8000 м дымка 3/3 300 м
[Sc]
+1.1 +0.5 96 -3 -3 тепло 996.0 979.6
С 2 1500 м туман на расстоянии 1/1 300 м
[St]
+0.6 +0.2 97 -3 -3 по сезону 996.2 979.7
СВ 1 6000 м дымка 9/1 300 м
[St Ac As]
-0.3 -0.7 97 -3 -3 по сезону 996.7 980.2
С 1 7000 м дымка 9/1 300 м
[St Ac As]
-0.1 -0.4 98 -2 -2 тепло 996.7 980.2
нст 1 6000 м дымка 10/1 300 м
[St Ac As]
+0.1 -0.3 97 -2 -2 по сезону 996.9 980.4
С 2 6000 м дымка 10/4 180 м
[St Ac As]
+0.6 +0.2 97 -3 -3 по сезону 997.3 980.8
СВ 1 6000 м слаб. снег 10/5 150 м
[Sc Ac As]
+0.7 +0.3 97 -1 -1 тепло 997.7 981.2
С 1 7000 м слаб. снег 9/9 150 м
[Sc]
+0.6 +0.2 97 -2 -2 по сезону 998.1 981.6 -0.9 0.2 0
штиль 0 7000 м местами туман поземный {снег} 9/9 150 м
[Sc]
+0.7 +0.3 97 -1 -1 тепло 998.1 981.6
1200 м туман на расстоянии 3/3 150 м
[Sc]
+1.3 +0.9 97 998.5 982.0
В 1 9000 м дымка {снег} 3/3 240 м
[Sc]
+3.2 +2.0 92 +2 +3 по сезону 999.0 982.6
ЮВ 2 8000 м дымка 6/3 240 м
[Sc Ac As]
+3.6 +2.3 91 +1 +2 тепло 998.5 982.2
ЮВ 2 20 км 9/1 300 м
[St Ac As]
+5.6 +2.4 80 +3 +4 тепло 999.0 982.8
Ю 6 20 км слаб. дождь 9/9 480 м
[Sc]
+6.9 +2.8 75 +3 +3 по сезону 998.8 982.7 0.0
ЮЗ 6 25 км слаб. дождь 9/9 1350 м
[Sc]
+7.0 +2.9 75 +3 +3 тепло 999.4 983.3
ЮЗ 3 30 км слаб. дождь 8/5 500 м
[Cu Sc Ac As]
+6.4 +3.7 83 +3 +3 тепло 1000.0 983.8
ЮЗ 4 30 км в посл. час дождь 4/1 1380 м
[Cu Sc Ac lent]
+7.1 +3.4 77 +4 +4 тепло 1000.3 984.2
З 8 40 км 3/1 1500 м
[Sc Ac lent]
+9.1 +1.5 59 +5 +5 тепло 999.8 983.8
З 6 40 км 4/3 1500 м
[Sc Ac lent]
+8.9 +1.3 59 +5 +5 тепло 1002.6 986.5
ЮЗ 6 50 км {дождь} 9/8 750 м
[Cu Sc Ac lent]
+9.5 +2.4 61 +6 +6 тепло 1004.0 987.9 +9.9 0.6
З 5 50 км в посл. час ливневой дождь 1/1 750 м
[Cu Sc]
+7.5 +1.8 67 +4 +4 тепло 1006.7 990.5
З 2 50 км 1/0
[Ac lent]
+6.6 +0.1 63 +5 +5 тепло 1007.3 991.0
ЮВ 2 50 км {ливн. осадки} 1/0 2000 м
[Ac lent]
+1.0 -1.1 86 -2 -2 по сезону 1008.1 991.5
Ю 4 50 км 1/0
[Ac lent Ci fib]
+3.6 +0.3 79 -1 -1 тепло 1009.1 992.6
ЮЗ 2 50 км 9/0
[Ac As]
+2.8 +0.8 87 -0 -0 тепло 1009.8 993.2
нст 1 50 км {ливн. осадки} 4/0
[Ac lent Ci fib]
+2.3 +0.7 89 +1 +1 по сезону 1010.0 993.4 0.2
30 км 8/0
[Ac lent Cs]
+1.6 +0.7 94 1010.6 994.0
ЮВ 3 15 км 4/3 1500 м
[Sc Ac lent Ci fib]
-1.6 -2.2 96 -7 -7 по сезону 1011.6 994.7
Местоположение метеостанции Братислава (Словакия): широта 48.17 долгота 17.21 высота над уровнем моря 134 м.
В архиве по умолчанию представлена погода в Братиславе за последнюю неделю. Архивные данные за месяц целиком и за предыдущие месяцы, начиная с января 2011 года, Вы можете получить, выбрав интересующий диапазон дат из раскрывающегося списка и нажав кнопку "Найти!".
*Определитесь, кто Вы:
Внимание! Время в таблицах - всемирное. Для получения местного времени необходимо прибавить поправку, которая равна 1 ч.
Смотрите также архив погоды в соседних городах и на ближайших метеорологических станциях:
Партнеры нашего сайта:      
Пояснения к столбцам:
  • Ветер - указаны скорость ветра в м/с - средняя за 10 мин, порывы в срок и между сроками (в фигурных скобках) и направление, откуда дует ветер: С - северный,
  • СВ - северо-восточный, В - восточный, ЮВ - юго-восточный, Ю - южный, ЮЗ - юго-западный, З - западный, СЗ - северо-западный.
  • Видимость - горизонтальная дальность видимости в метрах или километрах. При видимости от 1 до 10 км при отсутствии осадков обычно наблюдается дымка, при ухудшении видимости до 1 км и менее - туман. В сухую погоду видимость может ухудшаться дымом, пылью или мглою.
  • Явления - указаны атмосферные явления, наблюдавшиеся в срок или в последний час перед сроком; фигурными скобками обозначены явления, наблюдавшиеся между сроками (за 1-3 часа до срока); квадратными скобками обозначены град или гололедные отложения с указанием их диаметра в мм.
  • Облачность - указаны через наклонную черту общая и нижняя облачность в баллах и высота нижней границы облаков в метрах; квадратными скобками обозначены формы облаков: Ci - перистые, Cs - перисто-слоистые, Cc - перисто-кучевые, Ac - высококучевые, As - высокослоистые, Sc - слоисто-кучевые, Ns - слоисто-дождевые, Cu - кучевые, Cb - кучево-дождевые. Подробнее классификацию облаков см. в Атласе облаков (PDF).
  • T - Температура воздуха - температура, измеренная на высоте 2 м над землей.
  • Td - Температура точки росы - температура, при понижении до которой содержащийся в воздухе водяной пар достигнет насыщения.
  • f - Относительная влажность воздуха - влажноcть воздуха, измеренная на высоте 2 м над землей.
  • Te - Эффективная температура - температура, которую ощущает одетый по сезону человек в тени. Характеристика душности погоды. При расчете учитывается влияние влажности воздуха и скорости ветра на теплоощущения человека.
  • Tes - Эффективная температура на солнце - температура, которую ощущает человек, с поправкой на солнечный нагрев. Характеристика знойности погоды. Зависит от высоты солнца над горизонтом, облачности и скорости ветра. Ночью, в пасмурную погоду, а также при ветре 12 м/с и более поправка равна нулю.
  • P - Атмосферное давление - приведенное к уровню моря атмосферное давление.
  • Po - Атмосферное давление - измеренное на уровне метеостанции атмосферное давление.
  • Tmin - Минимальная температура - минимум температуры воздуха на высоте 2 м над землей.
  • Tmax - Максимальная температура - максимум температуры воздуха на высоте 2 м над землей.
  • R - Количество осадков - Количество выпавших осадков за период времени, мм. При наведении курсора мыши на число - период времени, за который выпало указанное количество осадков.
  • R24 - Количество осадков - Количество выпавших осадков за 24 часа, мм.
  • S - Снежный покров - Высота снежного покрова, см. При наведении курсора мыши на число - состояние снежного покрова и степень покрытия местности в баллах.